| time (UTC) | temp F | wind direction | speed MPH | gust MPH | rain 1hr in | rain 24hr in | rain mn in | humidity % | barometer mb |
| 20260509091428 | 69 | 285 | 0.0 | 0.0 | 0.00 | 0.00 | 0.00 | 41 | 1015.8 |
| 20260509090428 | 70 | 124 | 1.0 | 0.0 | 0.00 | 0.00 | 0.00 | 39 | 1015.7 |
| 20260509085427 | 70 | 218 | 2.0 | 0.0 | 0.00 | 0.00 | 0.00 | 38 | 1015.6 |
| 20260509084427 | 70 | 219 | 2.0 | 0.0 | 0.00 | 0.00 | 0.00 | 37 | 1015.5 |
| 20260509083428 | 71 | 163 | 8.0 | 0.0 | 0.00 | 0.00 | 0.00 | 36 | 1015.4 |
| 20260509082426 | 71 | 187 | 7.0 | 0.0 | 0.00 | 0.00 | 0.00 | 35 | 1015.3 |
| 20260509081426 | 72 | 240 | 3.0 | 0.0 | 0.00 | 0.00 | 0.00 | 34 | 1015.2 |
| 20260509080425 | 72 | 240 | 3.0 | 0.0 | 0.00 | 0.00 | 0.00 | 34 | 1015.1 |
| 20260509075425 | 72 | 198 | 2.0 | 0.0 | 0.00 | 0.00 | 0.00 | 33 | 1015.1 |
| 20260509074425 | 73 | 113 | 2.0 | 0.0 | 0.00 | 0.00 | 0.00 | 33 | 1015.0 |
| 20260509073424 | 73 | 224 | 5.0 | 0.0 | 0.00 | 0.00 | 0.00 | 33 | 1015.0 |
| 20260509072424 | 73 | 210 | 3.0 | 0.0 | 0.00 | 0.00 | 0.00 | 34 | 1015.1 |
| 20260509071422 | 72 | 293 | 3.0 | 0.0 | 0.00 | 0.00 | 0.00 | 35 | 1015.1 |
| 20260509070421 | 72 | 203 | 6.0 | 0.0 | 0.00 | 0.00 | 0.00 | 35 | 1015.1 |
| 20260509065422 | 72 | 241 | 3.0 | 0.0 | 0.00 | 0.00 | 0.00 | 35 | 1015.1 |
| 20260509063419 | 72 | 271 | 4.0 | 0.0 | 0.00 | 0.00 | 0.00 | 33 | 1015.5 |
| 20260509062419 | 72 | 141 | 3.0 | 0.0 | 0.00 | 0.00 | 0.00 | 33 | 1015.5 |
| 20260509061419 | 72 | 184 | 6.0 | 0.0 | 0.00 | 0.00 | 0.00 | 34 | 1015.7 |
| 20260509060416 | 72 | 159 | 2.0 | 0.0 | 0.00 | 0.00 | 0.00 | 35 | 1015.6 |
| 20260509055414 | 73 | 148 | 3.0 | 0.0 | 0.00 | 0.00 | 0.00 | 36 | 1015.8 |
| 20260509054414 | 73 | 279 | 5.0 | 0.0 | 0.00 | 0.00 | 0.00 | 35 | 1015.7 |
| 20260509053414 | 74 | 152 | 5.0 | 0.0 | 0.00 | 0.00 | 0.00 | 34 | 1015.7 |
| 20260509052412 | 74 | 224 | 6.0 | 0.0 | 0.00 | 0.00 | 0.00 | 31 | 1015.7 |
| 20260509051410 | 74 | 238 | 4.0 | 0.0 | 0.00 | 0.00 | 0.00 | 32 | 1015.8 |
| 20260509044408 | 75 | 116 | 4.0 | 0.0 | 0.00 | 0.00 | 0.00 | 31 | 1016.1 |
| 20260509043408 | 73 | 262 | 2.0 | 0.0 | 0.00 | 0.00 | 0.00 | 31 | 1016.2 |
| 20260509042407 | 73 | 220 | 0.0 | 0.0 | 0.00 | 0.00 | 0.00 | 33 | 1016.4 |
| 20260509041407 | 72 | 135 | 1.0 | 0.0 | 0.00 | 0.00 | 0.00 | 35 | 1016.5 |
| 20260509040406 | 72 | 167 | 0.0 | 0.0 | 0.00 | 0.00 | 0.00 | 35 | 1016.6 |
| 20260509035406 | 72 | 263 | 0.0 | 0.0 | 0.00 | 0.00 | 0.00 | 37 | 1016.6 |
| 20260509034405 | 72 | 154 | 0.0 | 0.0 | 0.00 | 0.00 | 0.00 | 37 | 1016.8 |
| 20260509033406 | 72 | 82 | 0.0 | 0.0 | 0.00 | 0.00 | 0.00 | 36 | 1017.0 |
| 20260509032405 | 72 | 210 | 0.0 | 0.0 | 0.00 | 0.00 | 0.00 | 35 | 1017.0 |
| 20260509031404 | 71 | 170 | 0.0 | 0.0 | 0.00 | 0.00 | 0.00 | 32 | 1017.1 |
| 20260509030404 | 71 | 70 | 0.0 | 0.0 | 0.00 | 0.00 | 0.00 | 33 | 1017.2 |
| 20260509025404 | 70 | 140 | 0.0 | 0.0 | 0.00 | 0.00 | 0.00 | 32 | 1017.4 |
| 20260509024405 | 71 | 128 | 0.0 | 0.0 | 0.00 | 0.00 | 0.00 | 32 | 1017.4 |
| 20260509023403 | 70 | 193 | 0.0 | 0.0 | 0.00 | 0.00 | 0.00 | 32 | 1017.5 |
| 20260509022403 | 70 | 148 | 0.0 | 0.0 | 0.00 | 0.00 | 0.00 | 33 | 1017.7 |
| 20260509021402 | 69 | 120 | 0.0 | 0.0 | 0.00 | 0.00 | 0.00 | 34 | 1017.7 |
| 20260509020402 | 68 | 142 | 0.0 | 0.0 | 0.00 | 0.00 | 0.00 | 37 | 1018.0 |
| 20260509015401 | 68 | 226 | 3.0 | 0.0 | 0.00 | 0.00 | 0.00 | 37 | 1018.1 |
| 20260509014402 | 68 | 155 | 0.0 | 0.0 | 0.00 | 0.00 | 0.00 | 41 | 1018.2 |
| 20260509013401 | 67 | 40 | 1.0 | 0.0 | 0.00 | 0.00 | 0.00 | 41 | 1018.2 |
| 20260509012400 | 67 | 264 | 0.0 | 0.0 | 0.00 | 0.00 | 0.00 | 42 | 1018.2 |
| 20260509011401 | 66 | 139 | 0.0 | 0.0 | 0.00 | 0.00 | 0.00 | 44 | 1018.4 |
| 20260509010400 | 65 | 75 | 0.0 | 0.0 | 0.00 | 0.00 | 0.00 | 45 | 1018.5 |
| 20260509005400 | 65 | 113 | 0.0 | 0.0 | 0.00 | 0.00 | 0.00 | 46 | 1018.4 |
| 20260509004357 | 65 | 74 | 0.0 | 0.0 | 0.00 | 0.00 | 0.00 | 46 | 1018.3 |
| 20260509003355 | 64 | 119 | 0.0 | 0.0 | 0.00 | 0.00 | 0.00 | 49 | 1018.4 |
| 20260509002353 | 64 | 122 | 0.0 | 0.0 | 0.00 | 0.00 | 0.00 | 49 | 1018.5 |
| 20260509001353 | 64 | 104 | 0.0 | 0.0 | 0.00 | 0.00 | 0.00 | 49 | 1018.5 |
| 20260509000355 | 63 | 135 | 0.0 | 0.0 | 0.00 | 0.00 | 0.00 | 51 | 1018.6 |
| 20260508235352 | 63 | 53 | 0.0 | 0.0 | 0.00 | 0.00 | 0.00 | 51 | 1018.6 |
| 20260508234351 | 63 | 118 | 0.0 | 0.0 | 0.00 | 0.00 | 0.00 | 52 | 1018.6 |
| 20260508233351 | 63 | 82 | 0.0 | 0.0 | 0.00 | 0.00 | 0.00 | 52 | 1018.7 |
| 20260508232351 | 62 | 124 | 0.0 | 0.0 | 0.00 | 0.00 | 0.00 | 51 | 1018.7 |
| 20260508230347 | 62 | 358 | 0.0 | 0.0 | 0.00 | 0.00 | 0.00 | 50 | 1018.7 |
| 20260508225347 | 61 | 248 | 0.0 | 0.0 | 0.00 | 0.00 | 0.00 | 49 | 1018.7 |
| 20260508223347 | 60 | 258 | 0.0 | 0.0 | 0.00 | 0.00 | 0.00 | 52 | 1018.7 |
| 20260508222346 | 60 | 236 | 0.0 | 0.0 | 0.00 | 0.00 | 0.00 | 57 | 1018.5 |
| 20260508221345 | 60 | 255 | 0.0 | 0.0 | 0.00 | 0.00 | 0.00 | 59 | 1018.5 |
| 20260508220346 | 57 | 248 | 0.0 | 0.0 | 0.00 | 0.00 | 0.00 | 63 | 1018.5 |
| 20260508215345 | 58 | 76 | 0.0 | 0.0 | 0.00 | 0.00 | 0.00 | 64 | 1018.3 |
| 20260508214344 | 57 | 345 | 0.0 | 0.0 | 0.00 | 0.00 | 0.00 | 65 | 1018.2 |
| 20260508213344 | 55 | 274 | 0.0 | 0.0 | 0.00 | 0.00 | 0.00 | 66 | 1018.0 |
| 20260508212344 | 54 | 274 | 0.0 | 0.0 | 0.00 | 0.00 | 0.00 | 70 | 1017.9 |
| 20260508211343 | 53 | 275 | 0.0 | 0.0 | 0.00 | 0.00 | 0.00 | 73 | 1017.8 |
| 20260508210343 | 52 | 284 | 0.0 | 0.0 | 0.00 | 0.00 | 0.00 | 75 | 1017.7 |
| 20260508205343 | 51 | 283 | 0.0 | 0.0 | 0.00 | 0.00 | 0.00 | 77 | 1017.6 |
| 20260508204342 | 51 | 286 | 2.0 | 0.0 | 0.00 | 0.00 | 0.00 | 78 | 1017.5 |
| 20260508203340 | 50 | 289 | 0.0 | 0.0 | 0.00 | 0.00 | 0.00 | 78 | 1017.4 |
| 20260508202339 | 50 | 278 | 0.0 | 0.0 | 0.00 | 0.00 | 0.00 | 78 | 1017.4 |
| 20260508201339 | 50 | 281 | 0.0 | 0.0 | 0.00 | 0.00 | 0.00 | 79 | 1017.3 |
| 20260508200338 | 51 | 278 | 0.0 | 0.0 | 0.00 | 0.00 | 0.00 | 78 | 1017.2 |
| 20260508195338 | 51 | 273 | 0.0 | 0.0 | 0.00 | 0.00 | 0.00 | 79 | 1017.1 |
| 20260508194337 | 51 | 288 | 0.0 | 0.0 | 0.00 | 0.00 | 0.00 | 78 | 1017.0 |
| 20260508193337 | 51 | 283 | 0.0 | 0.0 | 0.00 | 0.00 | 0.00 | 78 | 1016.9 |
| 20260508192337 | 52 | 274 | 0.0 | 0.0 | 0.00 | 0.00 | 0.00 | 78 | 1016.7 |
| 20260508191335 | 52 | 290 | 0.0 | 0.0 | 0.00 | 0.00 | 0.00 | 79 | 1016.6 |
| 20260508190335 | 52 | 275 | 0.0 | 0.0 | 0.00 | 0.00 | 0.00 | 78 | 1016.5 |
| 20260508185334 | 52 | 275 | 0.0 | 0.0 | 0.00 | 0.00 | 0.00 | 78 | 1016.4 |
| 20260508184334 | 52 | 285 | 1.0 | 0.0 | 0.00 | 0.00 | 0.00 | 77 | 1016.2 |
| 20260508183333 | 52 | 285 | 1.0 | 0.0 | 0.00 | 0.00 | 0.00 | 77 | 1016.1 |
| 20260508182333 | 52 | 276 | 0.0 | 0.0 | 0.00 | 0.00 | 0.00 | 76 | 1016.1 |
| 20260508181333 | 53 | 280 | 0.0 | 0.0 | 0.00 | 0.00 | 0.00 | 76 | 1015.9 |
| 20260508180332 | 53 | 304 | 0.0 | 0.0 | 0.00 | 0.00 | 0.00 | 74 | 1015.8 |
| 20260508175332 | 53 | 304 | 0.0 | 0.0 | 0.00 | 0.00 | 0.00 | 74 | 1015.8 |
| 20260508174332 | 53 | 288 | 1.0 | 0.0 | 0.00 | 0.00 | 0.00 | 74 | 1015.7 |
| 20260508173332 | 54 | 346 | 0.0 | 0.0 | 0.00 | 0.00 | 0.00 | 73 | 1015.7 |
| 20260508172331 | 54 | 309 | 0.0 | 0.0 | 0.00 | 0.00 | 0.00 | 72 | 1015.7 |
| 20260508171330 | 54 | 303 | 2.0 | 0.0 | 0.00 | 0.00 | 0.00 | 71 | 1015.7 |
| 20260508170330 | 55 | 280 | 0.0 | 0.0 | 0.00 | 0.00 | 0.00 | 69 | 1015.7 |
| 20260508165330 | 56 | 290 | 0.0 | 0.0 | 0.00 | 0.00 | 0.00 | 68 | 1015.7 |
| 20260508164329 | 56 | 297 | 0.0 | 0.0 | 0.00 | 0.00 | 0.00 | 68 | 1015.6 |
| 20260508163330 | 56 | 355 | 1.0 | 0.0 | 0.00 | 0.00 | 0.00 | 69 | 1015.7 |
| 20260508162329 | 56 | 309 | 1.0 | 0.0 | 0.00 | 0.00 | 0.00 | 67 | 1015.6 |
| 20260508161328 | 57 | 286 | 0.0 | 0.0 | 0.00 | 0.00 | 0.00 | 65 | 1015.6 |
| 20260508160328 | 55 | 304 | 0.0 | 0.0 | 0.00 | 0.00 | 0.00 | 64 | 1015.5 |
| 20260508155328 | 55 | 345 | 0.0 | 0.0 | 0.00 | 0.00 | 0.00 | 61 | 1015.5 |
| 20260508154327 | 55 | 282 | 0.0 | 0.0 | 0.00 | 0.00 | 0.00 | 60 | 1015.3 |
| 20260508153327 | 55 | 276 | 0.0 | 0.0 | 0.00 | 0.00 | 0.00 | 58 | 1015.2 |
| 20260508152327 | 55 | 283 | 2.0 | 0.0 | 0.00 | 0.00 | 0.00 | 59 | 1015.2 |
| 20260508151326 | 55 | 297 | 0.0 | 0.0 | 0.00 | 0.00 | 0.00 | 60 | 1015.0 |
| 20260508150326 | 54 | 284 | 0.0 | 0.0 | 0.00 | 0.00 | 0.00 | 61 | 1014.9 |
| 20260508145326 | 54 | 268 | 0.0 | 0.0 | 0.00 | 0.00 | 0.00 | 61 | 1014.8 |
| 20260508144325 | 55 | 269 | 0.0 | 0.0 | 0.00 | 0.00 | 0.00 | 61 | 1014.7 |
| 20260508143325 | 55 | 286 | 0.0 | 0.0 | 0.00 | 0.00 | 0.00 | 58 | 1014.7 |
| 20260508142325 | 56 | 304 | 0.0 | 0.0 | 0.00 | 0.00 | 0.00 | 55 | 1014.4 |
| 20260508141324 | 55 | 290 | 0.0 | 0.0 | 0.00 | 0.00 | 0.00 | 57 | 1014.3 |
| 20260508140324 | 55 | 302 | 0.0 | 0.0 | 0.00 | 0.00 | 0.00 | 58 | 1014.4 |
| 20260508135323 | 55 | 311 | 0.0 | 0.0 | 0.00 | 0.00 | 0.00 | 59 | 1014.4 |
| 20260508134323 | 56 | 284 | 0.0 | 0.0 | 0.00 | 0.00 | 0.00 | 58 | 1014.4 |
| 20260508133323 | 56 | 276 | 0.0 | 0.0 | 0.00 | 0.00 | 0.00 | 58 | 1014.4 |
| 20260508132322 | 56 | 284 | 0.0 | 0.0 | 0.00 | 0.00 | 0.00 | 56 | 1014.3 |
| 20260508131322 | 57 | 278 | 0.0 | 0.0 | 0.00 | 0.00 | 0.00 | 55 | 1014.4 |
| 20260508130321 | 57 | 284 | 0.0 | 0.0 | 0.00 | 0.00 | 0.00 | 54 | 1014.3 |
| 20260508125322 | 57 | 300 | 0.0 | 0.0 | 0.00 | 0.00 | 0.00 | 54 | 1014.2 |
| 20260508124412 | 56 | 276 | 0.0 | 0.0 | 0.00 | 0.00 | 0.00 | 57 | 1014.1 |
| 20260508124321 | 56 | 276 | 0.0 | 0.0 | 0.00 | 0.00 | 0.00 | 57 | 1014.1 |
| 20260508123338 | 57 | 297 | 0.0 | 0.0 | 0.00 | 0.00 | 0.00 | 56 | 1014.0 |
| 20260508122320 | 57 | 297 | 0.0 | 0.0 | 0.00 | 0.00 | 0.00 | 55 | 1013.8 |
| 20260508121320 | 56 | 278 | 0.0 | 0.0 | 0.00 | 0.00 | 0.00 | 56 | 1013.8 |
| 20260508120319 | 57 | 309 | 1.0 | 0.0 | 0.00 | 0.00 | 0.00 | 56 | 1013.6 |
| 20260508115319 | 57 | 295 | 1.0 | 0.0 | 0.00 | 0.00 | 0.00 | 56 | 1013.5 |
| 20260508114319 | 57 | 280 | 2.0 | 0.0 | 0.00 | 0.00 | 0.00 | 58 | 1013.4 |
| 20260508113318 | 57 | 272 | 0.0 | 0.0 | 0.00 | 0.00 | 0.00 | 57 | 1013.2 |
| 20260508112315 | 57 | 278 | 0.0 | 0.0 | 0.00 | 0.00 | 0.00 | 56 | 1013.0 |
| 20260508111315 | 57 | 258 | 0.0 | 0.0 | 0.00 | 0.00 | 0.00 | 57 | 1012.7 |
| 20260508105314 | 58 | 286 | 1.0 | 0.0 | 0.00 | 0.00 | 0.00 | 56 | 1012.4 |
| 20260508104311 | 59 | 288 | 0.0 | 0.0 | 0.00 | 0.00 | 0.00 | 54 | 1012.2 |
| 20260508103311 | 60 | 290 | 0.0 | 0.0 | 0.00 | 0.00 | 0.00 | 52 | 1012.0 |
| 20260508102310 | 62 | 285 | 0.0 | 0.0 | 0.00 | 0.00 | 0.00 | 46 | 1011.9 |
| 20260508101310 | 64 | 17 | 0.0 | 0.0 | 0.00 | 0.00 | 0.00 | 39 | 1011.6 |
| 20260508100310 | 64 | 5 | 1.0 | 0.0 | 0.00 | 0.00 | 0.00 | 38 | 1011.4 |
| 20260508095310 | 64 | 5 | 2.0 | 0.0 | 0.00 | 0.00 | 0.00 | 37 | 1011.4 |
| 20260508094309 | 65 | 287 | 4.0 | 0.0 | 0.00 | 0.00 | 0.00 | 36 | 1011.2 |
| 20260508093309 | 65 | 296 | 5.0 | 0.0 | 0.00 | 0.00 | 0.00 | 35 | 1011.0 |
| 20260508092313 | 66 | 279 | 3.0 | 0.0 | 0.00 | 0.00 | 0.00 | 34 | 1010.9 |